Location: Lecco
(45.8566°N, 9.3977°E)
Time: 07:29:00
(UTC+02:00)

A-11 Canister half - Pass Details

Date: 18 August 2020
Orbit: 1514 x 1686 km, 47.2° (Epoch: 21 September)

Event Time Altitude Azimuth Distance (km) Brightness Sun altitude
Rises 21:56:59 0° 289° (WNW) 4,791 13.1 -14.9°
Reaches altitude 10° 22:00:03 10° 287° (WNW) 3,827 12.2 -15.3°
Maximum altitude 22:09:47 72° 206° (SSW) 1,719 9.2 -16.7°
Enters shadow 22:16:38 24° 128° (SE) 2,984 9.9 -17.6°
